Time,TemperatureF,DewpointF,PressureIn,WindDirection,WindDirectionDegrees,WindSpeedMPH,WindSpeedGustMPH,Humidity,HourlyPrecipIn,Conditions,Clouds,dailyrainin,SoftwareType,DateUTC
2013-07-16 00:01:00,79.0,65.0,30.18,North,-999,-999.0,-999.0,63,-99.99,,,-99.99,,2013-07-16 04:01:00,
2013-07-16 00:12:00,77.0,66.0,30.18,North,-999,-999.0,-999.0,66,-99.99,,,-99.99,,2013-07-16 04:12:00,
2013-07-16 00:22:00,77.0,66.0,30.18,North,-999,-999.0,-999.0,69,-99.99,,,-99.99,,2013-07-16 04:22:00,
2013-07-16 00:32:00,75.0,66.0,30.18,North,-999,-999.0,-999.0,71,-99.99,,,-99.99,,2013-07-16 04:32:00,
2013-07-16 00:43:00,75.0,66.0,30.18,North,-999,-999.0,-999.0,71,-99.99,,,-99.99,,2013-07-16 04:43:00,
2013-07-16 00:53:00,77.0,64.0,30.18,North,-999,-999.0,-999.0,63,-99.99,,,-99.99,,2013-07-16 04:53:00,
2013-07-16 01:11:00,77.0,64.0,30.18,North,-999,-999.0,-999.0,63,-99.99,,,-99.99,,2013-07-16 05:11:00,
2013-07-16 01:22:00,76.0,64.0,30.18,North,-999,-999.0,-999.0,65,-99.99,,,-99.99,,2013-07-16 05:22:00,
2013-07-16 01:32:00,76.0,64.0,30.18,North,-999,-999.0,-999.0,65,-99.99,,,-99.99,,2013-07-16 05:32:00,
2013-07-16 01:43:00,76.0,63.0,30.17,North,-999,-999.0,-999.0,65,-99.99,,,-99.99,,2013-07-16 05:43:00,
2013-07-16 01:52:00,75.0,63.0,30.18,North,-999,-999.0,-999.0,65,-99.99,,,-99.99,,2013-07-16 05:52:00,
2013-07-16 02:01:00,76.0,62.0,30.17,North,-999,-999.0,-999.0,62,-99.99,,,-99.99,,2013-07-16 06:01:00,
2013-07-16 02:11:00,76.0,62.0,30.17,North,-999,-999.0,-999.0,62,-99.99,,,-99.99,,2013-07-16 06:11:00,
2013-07-16 02:22:00,76.0,62.0,30.17,North,-999,-999.0,-999.0,61,-99.99,,,-99.99,,2013-07-16 06:22:00,
2013-07-16 02:32:00,76.0,62.0,30.17,North,-999,-999.0,-999.0,61,-99.99,,,-99.99,,2013-07-16 06:32:00,
2013-07-16 02:43:00,75.0,62.0,30.17,North,-999,-999.0,-999.0,62,-99.99,,,-99.99,,2013-07-16 06:43:00,
2013-07-16 02:52:00,74.0,62.0,30.17,North,-999,-999.0,-999.0,63,-99.99,,,-99.99,,2013-07-16 06:52:00,
2013-07-16 03:01:00,74.0,62.0,30.17,North,-999,-999.0,-999.0,63,-99.99,,,-99.99,,2013-07-16 07:01:00,
2013-07-16 03:12:00,75.0,62.0,30.17,North,-999,-999.0,-999.0,64,-99.99,,,-99.99,,2013-07-16 07:12:00,
2013-07-16 03:22:00,74.0,62.0,30.17,North,-999,-999.0,-999.0,66,-99.99,,,-99.99,,2013-07-16 07:22:00,
2013-07-16 03:32:00,74.0,62.0,30.17,North,-999,-999.0,-999.0,67,-99.99,,,-99.99,,2013-07-16 07:32:00,
2013-07-16 03:52:00,73.0,62.0,30.17,North,-999,-999.0,-999.0,68,-99.99,,,-99.99,,2013-07-16 07:52:00,
2013-07-16 04:01:00,73.0,62.0,30.17,North,-999,-999.0,-999.0,67,-99.99,,,-99.99,,2013-07-16 08:01:00,
2013-07-16 04:11:00,73.0,62.0,30.17,North,-999,-999.0,-999.0,67,-99.99,,,-99.99,,2013-07-16 08:11:00,
2013-07-16 04:22:00,73.0,62.0,30.17,North,-999,-999.0,-999.0,67,-99.99,,,-99.99,,2013-07-16 08:22:00,
2013-07-16 04:32:00,73.0,62.0,30.17,North,-999,-999.0,-999.0,68,-99.99,,,-99.99,,2013-07-16 08:32:00,
2013-07-16 04:43:00,73.0,62.0,30.17,North,-999,-999.0,-999.0,68,-99.99,,,-99.99,,2013-07-16 08:43:00,
2013-07-16 04:52:00,73.0,62.0,30.17,North,-999,-999.0,-999.0,68,-99.99,,,-99.99,,2013-07-16 08:52:00,
2013-07-16 05:12:00,73.0,62.0,30.17,North,-999,-999.0,-999.0,68,-99.99,,,-99.99,,2013-07-16 09:12:00,
2013-07-16 05:22:00,72.0,62.0,30.17,North,-999,-999.0,-999.0,69,-99.99,,,-99.99,,2013-07-16 09:22:00,
2013-07-16 05:52:00,73.0,62.0,30.18,North,-999,-999.0,-999.0,69,-99.99,,,-99.99,,2013-07-16 09:52:00,
2013-07-16 06:01:00,73.0,62.0,30.18,North,-999,-999.0,-999.0,69,-99.99,,,-99.99,,2013-07-16 10:01:00,
2013-07-16 06:11:00,73.0,62.0,30.18,North,-999,-999.0,-999.0,68,-99.99,,,-99.99,,2013-07-16 10:11:00,
2013-07-16 06:31:00,72.0,62.0,30.18,North,-999,-999.0,-999.0,70,-99.99,,,-99.99,,2013-07-16 10:31:00,
2013-07-16 06:52:00,73.0,63.0,30.19,North,-999,-999.0,-999.0,70,-99.99,,,-99.99,,2013-07-16 10:52:00,
2013-07-16 07:01:00,73.0,63.0,30.19,North,-999,-999.0,-999.0,70,-99.99,,,-99.99,,2013-07-16 11:01:00,
2013-07-16 07:11:00,73.0,63.0,30.19,North,-999,-999.0,-999.0,72,-99.99,,,-99.99,,2013-07-16 11:11:00,
2013-07-16 07:22:00,74.0,64.0,30.19,North,-999,-999.0,-999.0,69,-99.99,,,-99.99,,2013-07-16 11:22:00,
2013-07-16 07:53:00,75.0,64.0,30.19,North,-999,-999.0,-999.0,69,-99.99,,,-99.99,,2013-07-16 11:53:00,
2013-07-16 08:01:00,75.0,64.0,30.19,North,-999,-999.0,-999.0,69,-99.99,,,-99.99,,2013-07-16 12:01:00,
2013-07-16 08:11:00,76.0,65.0,30.20,North,-999,-999.0,-999.0,67,-99.99,,,-99.99,,2013-07-16 12:11:00,
2013-07-16 08:22:00,76.0,65.0,30.20,North,-999,-999.0,-999.0,67,-99.99,,,-99.99,,2013-07-16 12:22:00,
2013-07-16 08:43:00,77.0,65.0,30.20,North,-999,-999.0,-999.0,65,-99.99,,,-99.99,,2013-07-16 12:43:00,
2013-07-16 08:53:00,77.0,65.0,30.20,North,-999,-999.0,-999.0,64,-99.99,,,-99.99,,2013-07-16 12:53:00,
2013-07-16 09:11:00,79.0,66.0,30.20,North,-999,-999.0,-999.0,65,-99.99,,,-99.99,,2013-07-16 13:11:00,
2013-07-16 09:22:00,80.0,65.0,30.20,North,-999,-999.0,-999.0,59,-99.99,,,-99.99,,2013-07-16 13:22:00,
2013-07-16 09:52:00,83.0,66.0,30.20,North,-999,-999.0,-999.0,56,-99.99,,,-99.99,,2013-07-16 13:52:00,
2013-07-16 10:02:00,83.0,66.0,30.20,North,-999,-999.0,-999.0,56,-99.99,,,-99.99,,2013-07-16 14:02:00,
2013-07-16 10:11:00,83.0,66.0,30.20,North,-999,-999.0,-999.0,56,-99.99,,,-99.99,,2013-07-16 14:11:00,
2013-07-16 10:22:00,85.0,66.0,30.20,North,-999,-999.0,-999.0,53,-99.99,,,-99.99,,2013-07-16 14:22:00,
2013-07-16 10:43:00,84.0,67.0,30.20,North,-999,-999.0,-999.0,56,-99.99,,,-99.99,,2013-07-16 14:43:00,
2013-07-16 10:52:00,85.0,65.0,30.20,North,-999,-999.0,-999.0,51,-99.99,,,-99.99,,2013-07-16 14:52:00,
2013-07-16 11:11:00,87.0,67.0,30.20,North,-999,-999.0,-999.0,51,-99.99,,,-99.99,,2013-07-16 15:11:00,
2013-07-16 11:32:00,87.0,66.0,30.19,North,-999,-999.0,-999.0,48,-99.99,,,-99.99,,2013-07-16 15:32:00,
2013-07-16 11:53:00,87.0,63.0,30.20,North,-999,-999.0,-999.0,44,-99.99,,,-99.99,,2013-07-16 15:53:00,
2013-07-16 12:01:00,87.0,63.0,30.20,North,-999,-999.0,-999.0,44,-99.99,,,-99.99,,2013-07-16 16:01:00,
2013-07-16 12:11:00,89.0,66.0,30.19,North,-999,-999.0,-999.0,46,-99.99,,,-99.99,,2013-07-16 16:11:00,
2013-07-16 12:22:00,89.0,65.0,30.19,North,-999,-999.0,-999.0,44,-99.99,,,-99.99,,2013-07-16 16:22:00,
2013-07-16 12:52:00,89.0,65.0,30.19,North,-999,-999.0,-999.0,45,-99.99,,,-99.99,,2013-07-16 16:52:00,
2013-07-16 13:02:00,89.0,63.0,30.18,North,-999,-999.0,-999.0,41,-99.99,,,-99.99,,2013-07-16 17:02:00,
2013-07-16 13:12:00,89.0,63.0,30.18,North,-999,-999.0,-999.0,41,-99.99,,,-99.99,,2013-07-16 17:12:00,
2013-07-16 13:33:00,89.0,65.0,30.18,North,-999,-999.0,-999.0,45,-99.99,,,-99.99,,2013-07-16 17:33:00,
2013-07-16 13:43:00,89.0,62.0,30.18,North,-999,-999.0,-999.0,40,-99.99,,,-99.99,,2013-07-16 17:43:00,
2013-07-16 13:53:00,90.0,62.0,30.17,North,-999,-999.0,-999.0,39,-99.99,,,-99.99,,2013-07-16 17:53:00,
2013-07-16 14:01:00,91.0,63.0,30.17,North,-999,-999.0,-999.0,39,-99.99,,,-99.99,,2013-07-16 18:01:00,
2013-07-16 14:11:00,91.0,63.0,30.17,North,-999,-999.0,-999.0,39,-99.99,,,-99.99,,2013-07-16 18:11:00,
2013-07-16 14:33:00,90.0,64.0,30.17,North,-999,-999.0,-999.0,41,-99.99,,,-99.99,,2013-07-16 18:33:00,
2013-07-16 14:53:00,91.0,64.0,30.17,North,-999,-999.0,-999.0,40,-99.99,,,-99.99,,2013-07-16 18:53:00,
2013-07-16 15:01:00,92.0,59.0,30.17,North,-999,-999.0,-999.0,34,-99.99,,,-99.99,,2013-07-16 19:01:00,
2013-07-16 15:11:00,92.0,59.0,30.17,North,-999,-999.0,-999.0,34,-99.99,,,-99.99,,2013-07-16 19:11:00,
2013-07-16 15:32:00,91.0,59.0,30.17,North,-999,-999.0,-999.0,34,-99.99,,,-99.99,,2013-07-16 19:32:00,
2013-07-16 15:43:00,91.0,62.0,30.17,North,-999,-999.0,-999.0,38,-99.99,,,-99.99,,2013-07-16 19:43:00,
2013-07-16 15:52:00,92.0,61.0,30.17,North,-999,-999.0,-999.0,36,-99.99,,,-99.99,,2013-07-16 19:52:00,
2013-07-16 16:03:00,92.0,61.0,30.17,North,-999,-999.0,-999.0,36,-99.99,,,-99.99,,2013-07-16 20:03:00,
2013-07-16 16:12:00,92.0,63.0,30.16,North,-999,-999.0,-999.0,38,-99.99,,,-99.99,,2013-07-16 20:12:00,
2013-07-16 16:22:00,92.0,62.0,30.16,North,-999,-999.0,-999.0,36,-99.99,,,-99.99,,2013-07-16 20:22:00,
2013-07-16 16:32:00,92.0,63.0,30.16,North,-999,-999.0,-999.0,38,-99.99,,,-99.99,,2013-07-16 20:32:00,
2013-07-16 16:52:00,92.0,60.0,30.16,North,-999,-999.0,-999.0,34,-99.99,,,-99.99,,2013-07-16 20:52:00,
2013-07-16 17:01:00,92.0,60.0,30.16,North,-999,-999.0,-999.0,34,-99.99,,,-99.99,,2013-07-16 21:01:00,
2013-07-16 17:11:00,92.0,63.0,30.16,North,-999,-999.0,-999.0,38,-99.99,,,-99.99,,2013-07-16 21:11:00,
2013-07-16 17:32:00,92.0,63.0,30.16,North,-999,-999.0,-999.0,38,-99.99,,,-99.99,,2013-07-16 21:32:00,
2013-07-16 17:43:00,91.0,63.0,30.16,North,-999,-999.0,-999.0,39,-99.99,,,-99.99,,2013-07-16 21:43:00,
2013-07-16 17:52:00,91.0,63.0,30.16,North,-999,-999.0,-999.0,39,-99.99,,,-99.99,,2013-07-16 21:52:00,
2013-07-16 18:01:00,91.0,64.0,30.16,North,-999,-999.0,-999.0,39,-99.99,,,-99.99,,2013-07-16 22:01:00,
2013-07-16 18:11:00,91.0,64.0,30.16,North,-999,-999.0,-999.0,39,-99.99,,,-99.99,,2013-07-16 22:11:00,
2013-07-16 18:22:00,90.0,65.0,30.16,North,-999,-999.0,-999.0,42,-99.99,,,-99.99,,2013-07-16 22:22:00,
2013-07-16 18:52:00,90.0,65.0,30.17,North,-999,-999.0,-999.0,43,-99.99,,,-99.99,,2013-07-16 22:52:00,
2013-07-16 19:02:00,89.0,66.0,30.17,North,-999,-999.0,-999.0,46,-99.99,,,-99.99,,2013-07-16 23:02:00,
2013-07-16 19:11:00,89.0,66.0,30.17,North,-999,-999.0,-999.0,46,-99.99,,,-99.99,,2013-07-16 23:11:00,
2013-07-16 19:22:00,87.0,65.0,30.17,North,-999,-999.0,-999.0,47,-99.99,,,-99.99,,2013-07-16 23:22:00,
2013-07-16 19:32:00,88.0,65.0,30.17,North,-999,-999.0,-999.0,47,-99.99,,,-99.99,,2013-07-16 23:32:00,
2013-07-16 19:43:00,88.0,65.0,30.17,North,-999,-999.0,-999.0,47,-99.99,,,-99.99,,2013-07-16 23:43:00,
2013-07-16 19:52:00,88.0,65.0,30.17,North,-999,-999.0,-999.0,46,-99.99,,,-99.99,,2013-07-16 23:52:00,
2013-07-16 20:11:00,87.0,66.0,30.17,North,-999,-999.0,-999.0,48,-99.99,,,-99.99,,2013-07-17 00:11:00,
2013-07-16 20:22:00,87.0,66.0,30.17,North,-999,-999.0,-999.0,48,-99.99,,,-99.99,,2013-07-17 00:22:00,
2013-07-16 20:33:00,85.0,68.0,30.18,North,-999,-999.0,-999.0,56,-99.99,,,-99.99,,2013-07-17 00:33:00,
2013-07-16 20:42:00,85.0,68.0,30.18,North,-999,-999.0,-999.0,56,-99.99,,,-99.99,,2013-07-17 00:42:00,
2013-07-16 20:52:00,84.0,68.0,30.19,North,-999,-999.0,-999.0,56,-99.99,,,-99.99,,2013-07-17 00:52:00,
2013-07-16 21:01:00,83.0,66.0,30.19,North,-999,-999.0,-999.0,56,-99.99,,,-99.99,,2013-07-17 01:01:00,
2013-07-16 21:12:00,83.0,66.0,30.19,North,-999,-999.0,-999.0,56,-99.99,,,-99.99,,2013-07-17 01:12:00,
2013-07-16 21:22:00,83.0,66.0,30.20,North,-999,-999.0,-999.0,56,-99.99,,,-99.99,,2013-07-17 01:22:00,
2013-07-16 21:32:00,82.0,67.0,30.20,North,-999,-999.0,-999.0,59,-99.99,,,-99.99,,2013-07-17 01:32:00,
2013-07-16 21:43:00,82.0,67.0,30.20,North,-999,-999.0,-999.0,59,-99.99,,,-99.99,,2013-07-17 01:43:00,
2013-07-16 21:53:00,83.0,66.0,30.20,North,-999,-999.0,-999.0,55,-99.99,,,-99.99,,2013-07-17 01:53:00,
2013-07-16 22:11:00,83.0,66.0,30.20,North,-999,-999.0,-999.0,55,-99.99,,,-99.99,,2013-07-17 02:11:00,
2013-07-16 22:22:00,83.0,64.0,30.20,North,-999,-999.0,-999.0,54,-99.99,,,-99.99,,2013-07-17 02:22:00,
2013-07-16 22:43:00,83.0,64.0,30.21,North,-999,-999.0,-999.0,53,-99.99,,,-99.99,,2013-07-17 02:43:00,
2013-07-16 22:53:00,82.0,65.0,30.21,North,-999,-999.0,-999.0,56,-99.99,,,-99.99,,2013-07-17 02:53:00,
2013-07-16 23:11:00,81.0,65.0,30.21,North,-999,-999.0,-999.0,57,-99.99,,,-99.99,,2013-07-17 03:11:00,
2013-07-16 23:32:00,82.0,64.0,30.21,North,-999,-999.0,-999.0,55,-99.99,,,-99.99,,2013-07-17 03:32:00,
2013-07-16 23:53:00,80.0,64.0,30.21,North,-999,-999.0,-999.0,56,-99.99,,,-99.99,,2013-07-17 03:53:00,